[[{"header":{"parameterUnit":"m.s-1","parameterCategory":1,"la1":30.2991,"la2":30.254,"lo1":-89.0895,"lo2":-89.0444,"dy":0.0017,"dx":0.0017,"nx":28,"ny":28,"refTime":"2024-05-26T09:00:00:Z","depth":0,"parameterNumber":2,"parameterNumberName":"U-component_of_WINDS"},"data":[0,0,0,0,0,0,0,0,0,0,0,0,0,0,0,0,0,0,0,0,0,0,0,0,0,0,0,0,0,0,0,0,0,0,0,0,0,0,0,0,0,0,0,0,0,0,0,0,0,0,0,0,0,0,0,0,0,0,0.8924,0.8926,0,0.9108,0.911,0.9112,0.9158,0.9157,0.9156,0.9155,0.9348,0.9354,0.9361,0,0,0,0,0,0,0,0,0,0,0,0,0,0.8618,0.8624,0.8923,0.8926,0.8928,0.9107,0.911,0.9112,0.9158,0.9157,0.9155,0.9154,0.9346,0.9354,0.9361,0,0,0,0,0,0,0,0,0,0,0,0,0,0.8772,0.8626,0.8923,0.8973,0.8979,0.9107,0.911,0.9113,0.9159,0.9157,0.9155,0.9153,0.9344,0.9353,0.9362,0.9456,0,0,0.9391,0.9395,0,0,0,0,0,0,0,0,0.8763,0.8783,0.8963,0.8969,0.8977,0.9108,0.9073,0.9228,0.9159,0.909,0.9155,0.9153,0.927,0.9285,0.9324,0.9465,0.9473,0.9392,0.9397,0.9401,0.9404,0,0,0,0,0,0,0,0.8752,0.8775,0.8996,0.8966,0.8974,0.8988,0.9007,0.9103,0.9188,0.9096,0.91,0.9121,0.9274,0.9315,0.9329,0.9476,0.9391,0.94,0.9406,0.9409,0.9705,0.9707,0,0,0,0,0,0,0.8732,0.8766,0.8991,0.9002,0.8863,0.8994,0.9017,0.9068,0.9187,0.9204,0.9122,0.9122,0.93,0.9318,0.9336,0.9455,0.9401,0.941,0.9416,0.9703,0.9706,0.9708,0,0,0,0,0,0,0.8725,0.8752,0.8983,0.8885,0.8916,0.9002,0.9059,0.9072,0.9113,0.9207,0.9223,0.9148,0.9299,0.9323,0.9426,0.9462,0.9414,0.9423,0.97,0.9704,0.9707,0.9692,0,0,0,0,0,0,0.8716,0.8749,0.8784,0.8885,0.8921,0.9068,0.9061,0.9077,0.9129,0.9131,0.9236,0.9251,0.9299,0.9411,0.9435,0.9474,0.943,0.9697,0.9702,0.9706,0.9689,0.9694,0.9698,0,0,0,0,0,0.8705,0.8773,0.8785,0.8812,0.8966,0.907,0.909,0.9143,0.9131,0.9168,0.9229,0.9248,0.9454,0.9422,0.9449,0.9491,0.9695,0.9701,0.9705,0.9687,0.9693,0.9698,0,0,0,0,0,0,0.8675,0.8787,0.8802,0.8904,0.8977,0.9077,0.9125,0.9147,0.9226,0.9224,0.9288,0.9311,0.9411,0.9461,0.9423,0.9589,0.9575,0.9586,0.9552,0.9558,0.9563,0.9549,0.9438,0,0,0,0,0,0.8679,0.8753,0.8848,0.8929,0.8964,0.9038,0.9086,0.912,0.9199,0.923,0.9298,0.9375,0.9458,0.9511,0.9592,0.9697,0.9722,0.974,0.9744,0.9747,0.9756,0.9817,0.9827,0.9725,0.9724,0.9724,0,0,0.8691,0.8761,0.8804,0.8924,0.8985,0.9062,0.9064,0.9145,0.9203,0.9243,0.9344,0.9397,0.9488,0.9592,0.9642,0.9638,0.979,0.9753,0.9755,0.9763,0.9824,0.9833,0.9842,0.9728,0.9727,0.9727,0,0,0.875,0.881,0.8885,0.8945,0.9037,0.9086,0.9103,0.9201,0.9237,0.934,0.9372,0.9443,0.9583,0.9647,0.9698,0.9783,0.9805,0.9808,0.9831,0.989,0.9899,0.9906,0.9938,0.9949,0.9816,0.9816,0.9816,0,0.8753,0.8868,0.8921,0.9001,0.9054,0.9092,0.917,0.9227,0.934,0.9377,0.937,0.9548,0.9611,0.9733,0.9753,0.9793,0.9817,0.9797,0.9893,0.9901,0.9909,0.994,0.9952,0.9816,0.9816,0.9816,0.9816,0,0.8868,0.8947,0.8997,0.9105,0.9164,0.9242,0.9309,0.9362,0.9392,0.9442,0.9547,0.9625,0.9723,0.9754,0.9784,0.9881,0.9875,0.988,0.9867,0.9917,0.9948,0.996,0.9816,0.9816,0.9816,0.9816,0,0,0.8913,0.9049,0.9067,0.9117,0.9221,0.9284,0.9365,0.946,0.9505,0.9583,0.9654,0.9772,0.9777,0.9835,0.9873,0.9924,0.9989,0.9923,0.9926,0.9934,1.0103,1.0099,1.0112,1.0004,1.0006,1.0008,1.0095,0,0.8986,0.913,0.9181,0.9301,0.9376,0.9415,0.9486,0.9559,0.9609,0.9682,0.9737,0.982,0.982,0.9855,0.9908,0.997,1.0024,0.9964,1.0073,1.0076,1.0049,1.0128,1.0124,1.0202,1.0107,1.011,1.0111,0,0.9091,0.9169,0.9296,0.9392,0.9426,0.9488,0.958,0.9648,0.9733,0.9766,0.983,0.9865,0.9953,0.9935,1.0059,1.0017,1.0065,1.0102,1.0106,1.0119,1.0097,1.0144,1.0229,1.0241,1.013,1.0129,1.0127,0,0.9113,0.9249,0.9343,0.9385,0.9499,0.9543,0.9593,0.9675,0.9729,0.981,0.9846,0.9937,0.9987,1.0057,1.0116,1.0097,1.0236,1.0222,1.0267,1.0266,1.0296,1.0293,1.039,1.0324,1.0324,1.0324,1.0323,0,0.919,0.9266,0.9355,0.9413,0.95,0.9559,0.9645,0.9698,0.9771,0.9842,0.9881,0.9947,1.002,1.0096,1.0143,1.024,1.0262,1.0293,1.0304,1.029,1.0286,1.0322,1.0319,1.0327,1.0326,1.0326,1.0325,0,0.9229,0.9291,0.9396,0.9496,0.9523,0.9583,0.967,0.9729,0.978,0.9869,0.9894,0.9975,1.0067,1.0132,1.0251,1.0282,1.0387,1.0398,1.0358,1.0364,1.0407,1.0402,1.0531,1.0552,1.0471,1.0471,1.0472,0,0.9274,0.9334,0.944,0.9489,0.9539,0.9618,0.9674,0.9735,0.9791,0.9893,0.994,1.0034,1.0112,1.0258,1.0329,1.042,1.0435,1.0474,1.0449,1.0433,1.0437,1.0433,1.044,1.0477,1.0478,1.0478,1.0479,0,0.9349,0.9377,0.9454,0.9544,0.9608,0.9682,0.9756,0.9794,0.9869,0.9931,1.0024,1.0085,1.0206,1.03,1.0398,1.0452,1.0479,1.0486,1.0502,1.0488,1.0463,1.0478,1.0369,1.0483,1.0483,1.0482,1.0482,1.0482,0.9394,0.9449,0.9533,0.9619,0.9681,0.9749,0.981,0.9869,0.9948,1.005,1.0082,1.0179,1.0265,1.0399,1.0454,1.0533,1.0531,1.0554,1.056,1.0565,1.0565,1.0449,1.0551,1.0551,1.0551,1.0551,1.0551,0,0.9472,0.9528,0.9606,0.9708,0.9776,0.9794,0.9877,0.9933,1.0018,1.0094,1.0171,1.028,1.0371,1.0449,1.0545,1.0593,1.0608,1.0616,1.0614,1.0626,1.056,1.0537,1.0603,1.0602,1.0602,1.0602,1.0602,1.0602,0.952,0.9616,0.9654,0.9782,0.9838,0.9933,0.9979,1.0043,1.0105,1.0224,1.03,1.035,1.0428,1.053,1.0615,1.0636,1.067,1.0676,1.07,1.0637,1.0631,1.0625,1.0604,1.0682,1.0682,1.076,1.076,1.0761]},{"header":{"parameterUnit":"m.s-1","parameterCategory":1,"la1":30.2991,"la2":30.254,"lo1":-89.0895,"lo2":-89.0444,"dy":0.0017,"dx":0.0017,"nx":28,"ny":28,"refTime":"2024-05-26T09:00:00:Z","depth":0,"parameterNumber":3,"parameterNumberName":"V-component_of_WINDS"},"data":[0,0,0,0,0,0,0,0,0,0,0,0,0,0,0,0,0,0,0,0,0,0,0,0,0,0,0,0,0,0,0,0,0,0,0,0,0,0,0,0,0,0,0,0,0,0,0,0,0,0,0,0,0,0,0,0,0,0,4.3488,4.349,0,4.3643,4.3644,4.3646,4.3654,4.3652,4.365,4.3649,4.3797,4.3802,4.3808,0,0,0,0,0,0,0,0,0,0,0,0,0,4.3191,4.3197,4.3488,4.349,4.3492,4.3642,4.3645,4.3647,4.3654,4.3652,4.365,4.3648,4.3795,4.3802,4.3809,0,0,0,0,0,0,0,0,0,0,0,0,0,4.333,4.3198,4.3488,4.3514,4.3518,4.3642,4.3645,4.3647,4.3655,4.3652,4.3649,4.3647,4.3793,4.3801,4.3809,4.3914,0,0,4.3835,4.3839,0,0,0,0,0,0,0,0,4.3322,4.3341,4.3508,4.3513,4.3517,4.3627,4.3594,4.3736,4.3655,4.3603,4.3649,4.3646,4.3742,4.3754,4.3789,4.3921,4.3928,4.3836,4.3841,4.3845,4.3847,0,0,0,0,0,0,0,4.3313,4.3334,4.3549,4.3511,4.3516,4.3515,4.3532,4.3621,4.3685,4.3607,4.3608,4.3627,4.3744,4.3781,4.3792,4.393,4.3836,4.3843,4.3848,4.3852,4.4157,4.416,0,0,0,0,0,0,4.3299,4.3326,4.3544,4.3554,4.3412,4.3523,4.3542,4.3594,4.3684,4.3695,4.3629,4.3626,4.3768,4.3782,4.3797,4.3928,4.3845,4.3852,4.3857,4.4154,4.4158,4.4161,0,0,0,0,0,0,4.3293,4.3319,4.3538,4.344,4.3468,4.3531,4.3589,4.3598,4.3636,4.3701,4.3711,4.3656,4.3766,4.3786,4.3886,4.3933,4.3856,4.3864,4.4151,4.4155,4.416,4.4189,0,0,0,0,0,0,4.3284,4.3316,4.3359,4.3442,4.3474,4.3627,4.3592,4.3603,4.3651,4.365,4.3729,4.3739,4.3765,4.3874,4.3895,4.3943,4.387,4.4147,4.4153,4.4158,4.4184,4.4194,4.4202,0,0,0,0,0,4.3274,4.3358,4.3361,4.3387,4.3529,4.363,4.3648,4.368,4.3655,4.3697,4.3739,4.3736,4.3924,4.3884,4.3908,4.3959,4.4144,4.4151,4.4158,4.418,4.4192,4.4202,0,0,0,0,0,0,4.3276,4.337,4.3374,4.3488,4.3552,4.3631,4.3685,4.3691,4.376,4.3755,4.3788,4.3806,4.3906,4.3942,4.3896,4.4066,4.4031,4.4043,4.4039,4.4051,4.406,4.405,4.3877,0,0,0,0,0,4.329,4.3368,4.3444,4.3537,4.3569,4.3622,4.3667,4.3686,4.3752,4.3777,4.3826,4.3887,4.396,4.4007,4.4078,4.4188,4.4206,4.4235,4.4244,4.4252,4.4262,4.4324,4.4339,4.4184,4.4184,4.4184,0,0,4.332,4.338,4.3427,4.354,4.3591,4.3668,4.3644,4.3726,4.3783,4.3789,4.3889,4.3926,4.3996,4.4103,4.4152,4.4136,4.4308,4.4261,4.4266,4.4272,4.4333,4.4347,4.436,4.4189,4.4188,4.4187,0,0,4.3414,4.3467,4.3553,4.3605,4.3684,4.3719,4.3739,4.3818,4.3845,4.3946,4.3953,4.4018,4.4143,4.4194,4.4235,4.4349,4.4349,4.437,4.4419,4.4479,4.4491,4.4502,4.4544,4.4558,4.438,4.438,4.438,0,4.3439,4.3559,4.3594,4.3678,4.3727,4.3739,4.3825,4.3873,4.3969,4.4002,4.3983,4.4141,4.4189,4.4308,4.4336,4.4369,4.4392,4.4363,4.4487,4.4499,4.4509,4.4549,4.4565,4.4383,4.4382,4.4382,4.4382,0,4.3588,4.367,4.3729,4.3827,4.3882,4.3965,4.4011,4.4062,4.4077,4.4112,4.4214,4.4272,4.4356,4.4385,4.4398,4.4506,4.4494,4.4481,4.4446,4.4526,4.4564,4.458,4.4386,4.4385,4.4384,4.4384,0,0,4.3688,4.3806,4.3827,4.3872,4.396,4.4023,4.4106,4.4192,4.4235,4.4301,4.4371,4.4477,4.4466,4.4513,4.4532,4.4584,4.4672,4.4565,4.4567,4.4584,4.4796,4.4807,4.4824,4.4673,4.4676,4.4678,4.4791,0,4.3793,4.3946,4.398,4.4111,4.4188,4.42,4.4273,4.4333,4.4369,4.4437,4.4473,4.4549,4.4528,4.4557,4.461,4.4651,4.4716,4.4643,4.4737,4.474,4.4722,4.4844,4.4856,4.496,4.4806,4.4808,4.481,0,4.3936,4.401,4.415,4.423,4.4263,4.4329,4.441,4.4475,4.4543,4.4565,4.4619,4.4632,4.4717,4.4678,4.4794,4.4744,4.4784,4.481,4.4814,4.4826,4.4781,4.486,4.4993,4.501,4.4834,4.4832,4.483,0,4.3997,4.4131,4.4233,4.427,4.4366,4.4412,4.4453,4.4519,4.4568,4.4637,4.467,4.4746,4.4788,4.4846,4.4879,4.4847,4.4994,4.4957,4.5013,4.5013,4.5045,4.5043,4.5188,4.5068,4.5068,4.5067,4.5067,0,4.4112,4.4197,4.4262,4.4324,4.442,4.4457,4.4549,4.4589,4.4648,4.4717,4.473,4.4793,4.4833,4.4901,4.4926,4.502,4.5037,4.5057,4.5063,4.5057,4.5055,4.5085,4.5079,4.5071,4.5071,4.507,4.5069,0,4.4197,4.4244,4.4356,4.4438,4.4461,4.4528,4.4597,4.4656,4.4692,4.4779,4.4801,4.4856,4.4937,4.4976,4.5075,4.5092,4.5198,4.5198,4.5177,4.518,4.5235,4.523,4.5406,4.5432,4.5293,4.5294,4.5295,0,4.4269,4.4335,4.4426,4.4475,4.4519,4.4597,4.4648,4.4686,4.4739,4.4822,4.4872,4.4954,4.5023,4.5151,4.5198,4.5274,4.5277,4.5334,4.5288,4.5281,4.528,4.5277,4.5284,4.5342,4.5343,4.5345,4.5345,0,4.4391,4.4411,4.4487,4.4572,4.4634,4.4701,4.4766,4.4804,4.4852,4.491,4.4996,4.5049,4.5153,4.5234,4.5314,4.5352,4.5357,4.5359,4.5377,4.5372,4.5358,4.5368,4.5201,4.5355,4.5354,4.5354,4.5353,4.5353,4.4472,4.4533,4.4607,4.4691,4.4746,4.4807,4.4869,4.4913,4.4987,4.5077,4.5093,4.5184,4.525,4.5358,4.5399,4.5469,4.5456,4.5481,4.5487,4.5493,4.5498,4.5346,4.5483,4.5483,4.5483,4.5482,4.5482,0,4.4597,4.4646,4.4723,4.4817,4.4883,4.4884,4.4957,4.5011,4.5093,4.5155,4.5224,4.5322,4.5401,4.5455,4.5535,4.558,4.5584,4.56,4.5597,4.5607,4.5504,4.5482,4.5595,4.5595,4.5595,4.5595,4.5595,4.5595,4.4669,4.4773,4.4802,4.4932,4.4979,4.5072,4.5113,4.5169,4.522,4.5331,4.5399,4.5434,4.5493,4.5577,4.565,4.5663,4.5692,4.5709,4.5722,4.5625,4.5614,4.5602,4.5582,4.5715,4.5715,4.5819,4.582,4.5821]}]]